Big Piney, WY

7:54 AM MST on January 22, 2018 (GMT -0700)
Big Piney-Marbleton

Weather History for KBPI - September, 2012

Change the Weather History Date:

Tuesday, September 18, 2012

  Actual Average Record
Temperature  
Mean Temperature 55 °F 49 °F  
Max Temperature 77 °F 67 °F 83 °F (2014)
Min Temperature 35 °F 31 °F 16 °F (2003)
Degree Days  
Heating Degree Days 10 16  
Month to date heating degree days 234  
Since 1 July heating degree days 527  
Cooling Degree Days 0 0  
Month to date cooling degree days 0  
Year to date cooling degree days 35  
Growing Degree Days 5 (Base 50)    
Moisture  
Dew Point 24 °F    
Average Humidity 35    
Maximum Humidity 62    
Minimum Humidity 13    
Precipitation  
Precipitation 0.00 in 0.03 in 0.16 in (1995)
Month to date precipitation 0.46  
Year to date precipitation 5.12  
Sea Level Pressure  
Sea Level Pressure 30.10 in    
Wind  
Wind Speed 8 mph (NW)    
Max Wind Speed 16 mph    
Max Gust Speed 22 mph    
Visibility 6 miles    
Events      
T = Trace of Precipitation, MM = Missing Value Source: NWS Daily Summary

Daily Weather History Graph

Daily Weather History Graph

Search for Another Location

Airport or City:

Trip Planner

Search our weather history database for the weather conditions in past years. The results will help you decide how hot, cold, wet, or windy it might be!

Date:

Astronomy

Sep. 18, 2012 Rise Set
Actual Time 7:04 AM MDT 7:23 PM MDT
Civil Twilight 6:35 AM MDT 7:52 PM MDT
Nautical Twilight 6:02 AM MDT 8:25 PM MDT
Astronomical Twilight 5:28 AM MDT 8:59 PM MDT
Moon 10:13 AM MDT (9/18) 8:43 PM MDT (9/18)
Length of Visible Light 13h 16m
Length of Day
12h 19m
Waxing Crescent, 9% of the Moon is Illuminated
Sep 18
Waxing Crescent
Sep 22
First Quarter
Sep 29
Full
Oct 8
Last Quarter
Oct 15
New

Hourly Weather History & Observations

Time (MDT) Temp. Windchill Dew Point Humidity Pressure Visibility Wind Dir Wind Speed Gust Speed Precip Events Conditions
12:53 AM 48.0 °F - 24.1 °F 39% 30.08 in 8.0 mi Variable 3.5 mph - N/A   Clear
1:53 AM 46.9 °F - 24.1 °F 41% 30.06 in 7.0 mi North 12.7 mph - N/A   Clear
2:53 AM 44.1 °F 38.6 °F 25.0 °F 47% 30.07 in 6.0 mi North 10.4 mph - N/A   Haze
3:53 AM 37.9 °F 34.4 °F 24.1 °F 57% 30.11 in 6.0 mi West 4.6 mph - N/A   Haze
4:53 AM 35.1 °F 28.6 °F 23.0 °F 61% 30.12 in 6.0 mi NNW 8.1 mph - N/A   Haze
5:53 AM 37.0 °F 31.0 °F 25.0 °F 62% 30.12 in 5.0 mi West 8.1 mph - N/A   Haze
6:53 AM 37.0 °F 33.3 °F 25.0 °F 62% 30.14 in 5.0 mi NW 4.6 mph - N/A   Haze
7:53 AM 39.9 °F - 26.1 °F 58% 30.20 in 4.0 mi Calm Calm - N/A   Haze
8:53 AM 45.0 °F - 27.0 °F 49% 30.21 in 4.0 mi Calm Calm - N/A   Haze
9:53 AM 53.1 °F - 28.0 °F 38% 30.18 in 5.0 mi SE 3.5 mph - N/A   Haze
10:53 AM 60.1 °F - 28.0 °F 30% 30.16 in 5.0 mi SSE 5.8 mph - N/A   Haze
11:53 AM 66.9 °F - 28.0 °F 23% 30.11 in 6.0 mi SSW 6.9 mph - N/A   Haze
12:53 PM 70.0 °F - 26.1 °F 19% 30.08 in 6.0 mi Variable 4.6 mph - N/A   Haze
1:53 PM 73.0 °F - 21.9 °F 15% 30.04 in 8.0 mi NW 11.5 mph - N/A   Clear
2:53 PM 75.0 °F - 21.9 °F 14% 30.01 in 9.0 mi West 6.9 mph 17.3 mph N/A   Clear
3:53 PM 75.9 °F - 21.9 °F 13% 30.02 in 5.0 mi NNW 16.1 mph 21.9 mph N/A   Haze
4:53 PM 75.0 °F - 21.9 °F 14% 30.03 in 5.0 mi NW 16.1 mph 21.9 mph N/A   Haze
5:53 PM 73.0 °F - 23.0 °F 15% 30.04 in 6.0 mi NNW 13.8 mph 18.4 mph N/A   Haze
6:53 PM 66.9 °F - 24.1 °F 20% 30.06 in 5.0 mi NNW 13.8 mph - N/A   Haze
7:53 PM 57.9 °F - 21.0 °F 24% 30.10 in 7.0 mi NNW 11.5 mph - N/A   Partly Cloudy
8:53 PM 50.0 °F - 21.9 °F 33% 30.13 in 7.0 mi NNW 10.4 mph - N/A   Clear
9:53 PM 48.0 °F - 21.0 °F 34% 30.12 in 8.0 mi NNW 8.1 mph - N/A   Clear
10:53 PM 48.9 °F - 21.0 °F 33% 30.09 in 9.0 mi NNW 11.5 mph - N/A   Clear
11:53 PM 45.0 °F 39.7 °F 18.0 °F 34% 30.09 in 10.0 mi North 10.4 mph - N/A   Clear